Regional Weather Roundup
Issued by NWS Upton, NY

Current Version | Previous Version | Text Only | Print | Product List | Glossary On
Versions: 1 2 3 4 5 6 7 8 9 10 11 12 13 14 15 16 17 18 19 20 21 22 23 24 25 26 27 28 29 30 31 32 33 34 35 36 37 38 39 40 41 42 43 44 45 46 47 48 49 50
000
ASUS41 KOKX 300005
RWROKX

REGIONAL WEATHER ROUNDUP
NATIONAL WEATHER SERVICE NEW YORK NY
800 PM EDT TUE JUL 29 2014

NOTE: "FAIR" INDICATES FEW OR NO CLOUDS BELOW 12,000 FEET WITH NO
SIGNIFICANT WEATHER AND/OR OBSTRUCTIONS TO VISIBILITY.

NYZ071-072-176-178-NJZ106-104-300100-
NEW YORK CITY METRO AREA


CITY           SKY/WX    TMP DP  RH WIND       PRES   REMARKS
CENTRAL PARK   CLOUDY    72  48  42 VRB5      29.97R
LAGUARDIA APRT CLOUDY    73  50  44 NW10      29.93R
KENNEDY INTL   MOCLDY    74  47  38 NW9       29.94R
NEWARK/LIBERTY MOCLDY    73  48  41 NW8       29.94R
BRNX BOT. GARD   N/A     72  50  46 W6        29.94F
TETERBORO      CLOUDY    73  49  42 NW6       29.93R
$$

NYZ177-179-078>081-300100-
LONG ISLAND NEW YORK

CITY           SKY/WX    TMP DP  RH WIND       PRES   REMARKS
FARMINGDALE    MOCLDY    72  51  47 N5        29.93S
ISLIP          MOCLDY    73  51  46 NW6       29.92R
SHIRLEY        MOCLDY    70  52  52 NW3       29.93S
WESTHAMPTON    PTCLDY    69  57  65 CALM      29.94S
MONTAUK POINT    N/A     70  61  73 S7        29.94S
$$

NYZ052-065-067-300100-
HUDSON VALLEY

CITY           SKY/WX    TMP DP  RH WIND       PRES   REMARKS
WHITE PLAINS   MOCLDY    68  52  56 NW3       29.94R
NEWBURGH       MOCLDY    66  55  68 W7        29.96R
MONTGOMERY     CLOUDY    67  52  58 W3        29.95R
POUGHKEEPSIE   CLOUDY    70  56  61 CALM      29.93R
ALBANY         MOCLDY    68  53  58 W6        29.93R
$$

NJZ001-105-106-008-010-013-015-019>022-104-300100-
NEW JERSEY

CITY           SKY/WX    TMP DP  RH WIND       PRES   REMARKS
NEWARK/LIBERTY MOCLDY    73  48  41 NW8       29.94R
TETERBORO      CLOUDY    73  49  42 NW6       29.93R
CALDWELL       CLEAR     69  52  54 CALM      29.95R
MORRISTOWN     CLEAR     66  57  72 CALM      29.96R
SOMERVILLE     CLOUDY    67  58  72 CALM      29.94R
LINDEN         FAIR      73  51  45 NW6       29.96R
SUSSEX         CLOUDY    69  52  54 CALM      29.96R
ANDOVER          N/A     63  57  81 CALM      29.97R
TRENTON        CLOUDY    71  54  54 NW3       29.95R
MILLVILLE      LGT RAIN  68  62  81 W3        29.96R
ATLANTIC CITY  CLOUDY    70  59  68 N3        29.95R
WRIGHTSTOWN    CLOUDY    71  55  57 W5        29.94R
TOMS RIVER     MOCLDY    72  55  56 CALM      29.96S
BELMAR         CLOUDY    72  55  56 W3        29.95S
$$

PAZ047>061-062-071-300100-
EASTERN PENNSYLVANIA

CITY           SKY/WX    TMP DP  RH WIND       PRES   REMARKS
PHILADELPHIA   CLOUDY    74  52  46 NW9       29.96R
ALLENTOWN      CLOUDY    69  54  58 CALM      29.97R
SCRANTON       CLOUDY    67  50  54 N3        29.98R
$$

CTZ002-004>006-009-010-012-RIZ004-006-007-MAZ004-011-015-300100-
SOUTHERN NEW ENGLAND
 IN CT

CITY           SKY/WX    TMP DP  RH WIND       PRES   REMARKS
BRADLEY INTL   MOCLDY    70  53  54 W7        29.92R
HARTFORD       CLOUDY    73  49  42 NW6       29.92R
DANBURY        CLOUDY    66  57  72 CALM      29.95R
WTRBRY/OXFORD  MOCLDY    66  55  68 CALM      29.96S
BRIDGEPORT     MOCLDY    73  53  49 NW8       29.93R
MERIDEN        CLOUDY    69  57  65 CALM      29.93R
NEW HAVEN      CLOUDY    74  54  49 NW3       29.93R
CHESTER        FAIR      66  57  72 CALM      29.94S
GROTON         CLEAR     69  58  67 W5        29.92R
WILLIMANTIC    PTCLDY    69  58  67 CALM      29.93R

 IN RI

CITY           SKY/WX    TMP DP  RH WIND       PRES   REMARKS
PROVIDENCE     PTCLDY    72  55  55 W3        29.92R
BLOCK ISLAND   CLEAR     70  61  73 SW12      29.94R
WESTERLY       CLEAR     72  58  61 SW7       29.93R

 IN MA

CITY           SKY/WX    TMP DP  RH WIND       PRES   REMARKS
BOSTON         MOCLDY    68  59  73 E5        29.90R
WORCESTER      CLEAR     64  54  69 W6        29.94R
WESTFIELD      CLEAR     69  51  52 W6        29.92R
PROVINCETOWN   MOCLDY    70  63  78 S6        29.91R
NANTUCKET      CLEAR     66  61  84 SW8       29.93S
$$

ANZ330-335-338-340-345-350-353-355-300100-
COASTAL MARINE OBSERVATIONS


STATION/POSITION TIME  SKY/WX   TEMP    WIND        PRES    VSBY  WAVE
                                AIR SEA DIR/SP/G                  HT/PER
                 (UTC)          (F)     (DEG/KT/KT) (MB)    (MI)  (FT/S)
NY HARB ENTRANCE NOT AVBL
4S FIRE IS       NOT AVBL
23SW MTP         0000            70 70              1013.2          4/ 8
HUDSON CANYON    0000            71 75  250/  2/  4 1014.0          3/ 8
EXECUTION ROCKS  0000            72 70  330/  8/ 12   N/A
WESTERN LI SOUND 0000            72     330/  8/ 10   N/A           0
CENTRAL LI SOUND 2300            72 71  260/ 10/ 12   N/A           1/ 2
EASTERN LI SOUND 2300            70 68  260/ 10/ 12   N/A
ROBBINS REEF     0000            73     320/  8/ 10   N/A
$$


>>>>>>>>>>>>>>>>>>>>>>>>>>>> KEY <<<<<<<<<<<<<<<<<<<<<<<<<<<
>                                                          <
>     SKY/WX - SKY CONDITION/PRESENT WEATHER               <
>     TMP    - TEMPERATURE IN FAHRENHEIT                   <
>     DP     - DEWPOINT IN FAHRENHEIT                      <
>     RH     - RELATIVE HUMIDITY IN PERCENT                <
>     WIND   - DIRECTION AND SPEED IN MPH                  <
>     PRES   - MEAN SEA LEVEL PRESSURE IN INCHES OF HG     <
>     WCI    - WIND CHILL INDEX                            <
>     VSB    - VISIBILITY IN MILES                         <
>     HX     - HEAT INDEX                                  <
>     TC     - TEMPERATURE IN CELSIUS                      <
>     VRB    - VARIABLE WIND DIRECTION                     <
>                                                          <
>>>>>>>>>>>>>>>>>>>>>>>>>>>> KEY <<<<<<<<<<<<<<<<<<<<<<<<<<<





USA.gov is the U.S. government's official web portal to all federal, state and local government web resources and services.